Location: ??????
(38.0131°N, 23.7723°E)
Time: 06:36:05
(UTC+00:00)

CZ-4 R/B - Pass Details

Date: 17 October 2021
Orbit: 531 x 595 km, 97.8° (Epoch: 28 November)

Event Time Altitude Azimuth Distance (km) Brightness Sun altitude
Rises 16:25:13 0° 135° (SE) 2,700 4.5 -8.8°
Reaches altitude 10° 16:27:39 10° 120° (ESE) 1,823 3.5 -9.3°
Maximum altitude 16:30:42 22° 69° (ENE) 1,248 2.6 -9.9°
Drops below altitude 10° 16:33:49 10° 18° (NNE) 1,863 3.8 -10.5°
Sets 16:36:20 0° 3° (N) 2,777 4.8 -11.0°
